[[{"header":{"parameterUnit":"m.s-1","parameterCategory":1,"la1":30.2991,"la2":30.254,"lo1":-89.0895,"lo2":-89.0444,"dy":0.0017,"dx":0.0017,"nx":28,"ny":28,"refTime":"2025-08-16T09:00:00:Z","depth":0,"parameterNumber":2,"parameterNumberName":"U-component_of_WINDS"},"data":[0,0,0,0,0,0,0,0,0,0,0,0,0,0,0,0,0,0,0,0,0,0,0,0,0,0,0,0,0,0,0,0,0,0,0,0,0,0,0,0,0,0,0,0,0,0,0,0,0,0,0,0,0,0,0,0,0,0,-0.2227,-0.2226,0,-0.216,-0.216,-0.2159,-0.2145,-0.2145,-0.2146,-0.2146,-0.2077,-0.2075,-0.2073,0,0,0,0,0,0,0,0,0,0,0,0,0,-0.2341,-0.2339,-0.2227,-0.2226,-0.2225,-0.216,-0.216,-0.2159,-0.2145,-0.2145,-0.2146,-0.2146,-0.2078,-0.2075,-0.2073,0,0,0,0,0,0,0,0,0,0,0,0,0,-0.2284,-0.2338,-0.2227,-0.221,-0.2208,-0.2161,-0.216,-0.2158,-0.2145,-0.2145,-0.2146,-0.2147,-0.2079,-0.2076,-0.2072,-0.2036,0,0,-0.2062,-0.206,0,0,0,0,0,0,0,0,-0.2288,-0.228,-0.2214,-0.2212,-0.2209,-0.2162,-0.2174,-0.2117,-0.2144,-0.2169,-0.2146,-0.2147,-0.2105,-0.2099,-0.2085,-0.2033,-0.203,-0.2061,-0.2059,-0.2058,-0.2057,0,0,0,0,0,0,0,-0.2292,-0.2283,-0.2201,-0.2213,-0.221,-0.2206,-0.2199,-0.2164,-0.2133,-0.2167,-0.2166,-0.2158,-0.2104,-0.2088,-0.2083,-0.2029,-0.2062,-0.2059,-0.2056,-0.2055,-0.1943,-0.1942,0,0,0,0,0,0,-0.2298,-0.2286,-0.2203,-0.2199,-0.2251,-0.2203,-0.2195,-0.2176,-0.2134,-0.2128,-0.2157,-0.2157,-0.2094,-0.2087,-0.2081,-0.2035,-0.2058,-0.2055,-0.2053,-0.1944,-0.1943,-0.1942,0,0,0,0,0,0,-0.2301,-0.2291,-0.2205,-0.2242,-0.2231,-0.2201,-0.2179,-0.2174,-0.2159,-0.2127,-0.2121,-0.2147,-0.2094,-0.2086,-0.2047,-0.2033,-0.2053,-0.205,-0.1945,-0.1944,-0.1943,-0.1944,0,0,0,0,0,0,-0.2304,-0.2292,-0.2278,-0.2242,-0.2229,-0.2173,-0.2178,-0.2173,-0.2153,-0.2153,-0.2116,-0.211,-0.2094,-0.2053,-0.2044,-0.2028,-0.2047,-0.1946,-0.1945,-0.1943,-0.1945,-0.1943,-0.1941,0,0,0,0,0,-0.2308,-0.2281,-0.2278,-0.2268,-0.2211,-0.2172,-0.2165,-0.2147,-0.2152,-0.2138,-0.2117,-0.2112,-0.2036,-0.2049,-0.2039,-0.2022,-0.1947,-0.1945,-0.1943,-0.1946,-0.1943,-0.1941,0,0,0,0,0,0,-0.2317,-0.2276,-0.2272,-0.2232,-0.2206,-0.217,-0.2151,-0.2145,-0.2116,-0.2117,-0.2096,-0.2087,-0.205,-0.2032,-0.2047,-0.1985,-0.1992,-0.1988,-0.1997,-0.1995,-0.1993,-0.1997,-0.2044,0,0,0,0,0,-0.2314,-0.2286,-0.2252,-0.2221,-0.2208,-0.2182,-0.2164,-0.2153,-0.2124,-0.2113,-0.2089,-0.2062,-0.2032,-0.2012,-0.1983,-0.1943,-0.1934,-0.1926,-0.1924,-0.1923,-0.1919,-0.1896,-0.1892,-0.1935,-0.1935,-0.1935,0,0,-0.2308,-0.2282,-0.2266,-0.2222,-0.22,-0.2171,-0.2172,-0.2142,-0.212,-0.2108,-0.207,-0.2052,-0.202,-0.198,-0.1962,-0.1965,-0.1906,-0.192,-0.1919,-0.1917,-0.1894,-0.189,-0.1886,-0.1934,-0.1934,-0.1934,0,0,-0.2282,-0.226,-0.2231,-0.2209,-0.2176,-0.2159,-0.2152,-0.2117,-0.2105,-0.2066,-0.2057,-0.2031,-0.1979,-0.1957,-0.1939,-0.1904,-0.1898,-0.1895,-0.1884,-0.1862,-0.1859,-0.1855,-0.1843,-0.1838,-0.1892,-0.1892,-0.1892,0,-0.2278,-0.2235,-0.2217,-0.2187,-0.2167,-0.2155,-0.2125,-0.2105,-0.2064,-0.2051,-0.2054,-0.199,-0.1967,-0.1922,-0.1914,-0.19,-0.1891,-0.1899,-0.1861,-0.1857,-0.1854,-0.1842,-0.1837,-0.1892,-0.1892,-0.1892,-0.1892,0,-0.2232,-0.2202,-0.2182,-0.2143,-0.2121,-0.2092,-0.2069,-0.2049,-0.2039,-0.2022,-0.1983,-0.1956,-0.192,-0.1909,-0.1899,-0.1862,-0.1865,-0.1865,-0.1871,-0.185,-0.1838,-0.1833,-0.1891,-0.1891,-0.1892,-0.1892,0,0,-0.2209,-0.216,-0.2153,-0.2135,-0.2098,-0.2074,-0.2043,-0.2009,-0.1992,-0.1964,-0.1938,-0.1895,-0.1895,-0.1874,-0.1862,-0.1843,-0.1816,-0.1845,-0.1844,-0.184,-0.1773,-0.1773,-0.1768,-0.1812,-0.1811,-0.1811,-0.1776,0,-0.2178,-0.2123,-0.2106,-0.206,-0.2032,-0.202,-0.1993,-0.1968,-0.1951,-0.1924,-0.1905,-0.1875,-0.1877,-0.1864,-0.1845,-0.1824,-0.1802,-0.1826,-0.1787,-0.1786,-0.1795,-0.1762,-0.1761,-0.173,-0.1771,-0.177,-0.177,0,-0.2134,-0.2106,-0.2057,-0.2023,-0.2011,-0.1987,-0.1954,-0.1929,-0.1899,-0.1888,-0.1865,-0.1854,-0.1822,-0.1831,-0.1785,-0.1802,-0.1785,-0.1772,-0.177,-0.1765,-0.1776,-0.1755,-0.1719,-0.1714,-0.1762,-0.1763,-0.1763,0,-0.2122,-0.2071,-0.2035,-0.202,-0.198,-0.1963,-0.1946,-0.1917,-0.1897,-0.1868,-0.1855,-0.1823,-0.1805,-0.178,-0.1761,-0.177,-0.1717,-0.1725,-0.1707,-0.1707,-0.1696,-0.1697,-0.1656,-0.1686,-0.1686,-0.1686,-0.1686,0,-0.2088,-0.2059,-0.2029,-0.2007,-0.1973,-0.1954,-0.1921,-0.1903,-0.1877,-0.1851,-0.1839,-0.1815,-0.1792,-0.1764,-0.1749,-0.1714,-0.1706,-0.1696,-0.1692,-0.1696,-0.1698,-0.1685,-0.1686,-0.1685,-0.1685,-0.1685,-0.1686,0,-0.2068,-0.2047,-0.2007,-0.1972,-0.1963,-0.194,-0.191,-0.1888,-0.187,-0.1837,-0.1829,-0.1801,-0.1768,-0.1747,-0.1705,-0.1695,-0.1656,-0.1653,-0.1666,-0.1664,-0.1647,-0.1649,-0.1596,-0.1588,-0.1624,-0.1624,-0.1623,0,-0.2048,-0.2025,-0.1988,-0.197,-0.1952,-0.1923,-0.1903,-0.1883,-0.1862,-0.1826,-0.1809,-0.1775,-0.1747,-0.1695,-0.1671,-0.1639,-0.1635,-0.1619,-0.163,-0.1635,-0.1634,-0.1636,-0.1633,-0.1617,-0.1617,-0.1616,-0.1616,0,-0.2015,-0.2005,-0.1977,-0.1945,-0.1921,-0.1895,-0.1868,-0.1854,-0.1829,-0.1807,-0.1773,-0.1751,-0.1709,-0.1675,-0.1641,-0.1623,-0.1615,-0.1613,-0.1607,-0.1611,-0.1619,-0.1614,-0.166,-0.1614,-0.1614,-0.1614,-0.1615,-0.1615,-0.1993,-0.1972,-0.1943,-0.1911,-0.1889,-0.1865,-0.1842,-0.1822,-0.1794,-0.1757,-0.1747,-0.1712,-0.1683,-0.1636,-0.1617,-0.1589,-0.1591,-0.1582,-0.158,-0.1578,-0.1578,-0.1624,-0.1583,-0.1583,-0.1583,-0.1583,-0.1583,0,-0.1959,-0.1939,-0.191,-0.1874,-0.1849,-0.1845,-0.1815,-0.1794,-0.1764,-0.1737,-0.171,-0.1671,-0.1638,-0.1612,-0.1579,-0.1562,-0.1557,-0.1553,-0.1554,-0.155,-0.1578,-0.1586,-0.1557,-0.1557,-0.1557,-0.1557,-0.1557,-0.1557,-0.1938,-0.1902,-0.1889,-0.1842,-0.1822,-0.1787,-0.1771,-0.1748,-0.1727,-0.1684,-0.1657,-0.164,-0.1614,-0.1578,-0.1548,-0.1541,-0.1529,-0.1526,-0.1519,-0.1545,-0.1548,-0.1551,-0.1558,-0.1524,-0.1524,-0.1493,-0.1492,-0.1492]},{"header":{"parameterUnit":"m.s-1","parameterCategory":1,"la1":30.2991,"la2":30.254,"lo1":-89.0895,"lo2":-89.0444,"dy":0.0017,"dx":0.0017,"nx":28,"ny":28,"refTime":"2025-08-16T09:00:00:Z","depth":0,"parameterNumber":3,"parameterNumberName":"V-component_of_WINDS"},"data":[0,0,0,0,0,0,0,0,0,0,0,0,0,0,0,0,0,0,0,0,0,0,0,0,0,0,0,0,0,0,0,0,0,0,0,0,0,0,0,0,0,0,0,0,0,0,0,0,0,0,0,0,0,0,0,0,0,0,0.2952,0.2953,0,0.3087,0.3088,0.309,0.3076,0.3074,0.3072,0.307,0.321,0.3215,0.3221,0,0,0,0,0,0,0,0,0,0,0,0,0,0.2681,0.2686,0.2952,0.2953,0.2955,0.3086,0.3088,0.309,0.3076,0.3074,0.3071,0.3069,0.3208,0.3215,0.3221,0,0,0,0,0,0,0,0,0,0,0,0,0,0.2806,0.2688,0.2951,0.2964,0.2966,0.3086,0.3088,0.3091,0.3077,0.3074,0.307,0.3067,0.3206,0.3214,0.3222,0.3339,0,0,0.3248,0.3252,0,0,0,0,0,0,0,0,0.2798,0.2815,0.296,0.2963,0.2966,0.3061,0.3044,0.3174,0.3078,0.3035,0.307,0.3066,0.3163,0.3175,0.3207,0.3345,0.3351,0.3249,0.3254,0.3258,0.326,0,0,0,0,0,0,0,0.279,0.281,0.3005,0.2963,0.2966,0.2962,0.2977,0.3069,0.3115,0.3038,0.3038,0.3054,0.3164,0.3199,0.321,0.3353,0.3249,0.3257,0.3262,0.3265,0.3588,0.3591,0,0,0,0,0,0,0.2778,0.2802,0.3001,0.3009,0.2873,0.297,0.2986,0.3034,0.3114,0.3123,0.3056,0.3053,0.3186,0.32,0.3215,0.3353,0.3258,0.3266,0.3271,0.3585,0.3589,0.3592,0,0,0,0,0,0,0.2772,0.2796,0.2995,0.2906,0.2931,0.2978,0.3032,0.3038,0.3073,0.3128,0.3136,0.3084,0.3184,0.3203,0.3307,0.3357,0.327,0.3278,0.358,0.3586,0.3591,0.3631,0,0,0,0,0,0,0.2765,0.2794,0.2839,0.2907,0.2936,0.3085,0.3035,0.3043,0.3088,0.3084,0.3155,0.3164,0.3183,0.3294,0.3315,0.3368,0.3284,0.3576,0.3583,0.3589,0.3625,0.3637,0.3647,0,0,0,0,0,0.2755,0.2847,0.2842,0.2866,0.2993,0.3088,0.3105,0.3124,0.3092,0.3137,0.3171,0.3162,0.3349,0.3305,0.3329,0.3384,0.3573,0.3581,0.3588,0.3621,0.3635,0.3647,0,0,0,0,0,0,0.2787,0.2856,0.2851,0.2968,0.3022,0.3086,0.3144,0.3139,0.3204,0.3198,0.322,0.3236,0.3339,0.3373,0.3322,0.3498,0.3456,0.3469,0.3473,0.3487,0.3497,0.3486,0.3291,0,0,0,0,0,0.2807,0.2878,0.2935,0.3033,0.306,0.3097,0.3139,0.3149,0.3206,0.3229,0.3271,0.3327,0.3398,0.3445,0.3513,0.363,0.3643,0.368,0.3691,0.3699,0.371,0.3769,0.3785,0.3618,0.3618,0.3618,0,0,0.285,0.2897,0.2941,0.304,0.3083,0.3155,0.3117,0.3196,0.3249,0.3242,0.334,0.3373,0.3437,0.3546,0.3597,0.3577,0.3758,0.3709,0.3716,0.3721,0.3779,0.3794,0.3808,0.3623,0.3622,0.3621,0,0,0.2964,0.3008,0.3091,0.3134,0.3199,0.3223,0.3242,0.3306,0.3327,0.3426,0.3421,0.3484,0.3607,0.3651,0.369,0.3816,0.3808,0.3838,0.3893,0.3951,0.3964,0.3976,0.4017,0.4032,0.3848,0.3848,0.3848,0,0.3009,0.3118,0.3135,0.3214,0.3256,0.325,0.3333,0.3375,0.3459,0.3488,0.3465,0.3615,0.3658,0.3775,0.3805,0.3838,0.3859,0.3829,0.3961,0.3973,0.3984,0.4023,0.4039,0.3851,0.3851,0.3851,0.385,0,0.3168,0.3243,0.3303,0.3381,0.343,0.3511,0.3539,0.3587,0.3591,0.3617,0.3716,0.3767,0.3843,0.3872,0.3879,0.3989,0.3974,0.3956,0.3914,0.4002,0.4039,0.4055,0.3855,0.3854,0.3853,0.3853,0,0,0.3307,0.3391,0.3413,0.3446,0.3515,0.3573,0.3652,0.3725,0.3764,0.3822,0.3886,0.3988,0.397,0.4014,0.4025,0.4076,0.4167,0.4051,0.4052,0.4067,0.4286,0.4297,0.4315,0.4163,0.4166,0.4168,0.428,0,0.3426,0.3564,0.358,0.3703,0.377,0.3764,0.3833,0.3882,0.3907,0.3967,0.3995,0.4065,0.4038,0.4063,0.4114,0.4145,0.4211,0.4138,0.4221,0.4224,0.4202,0.4335,0.4348,0.4451,0.4295,0.4297,0.4299,0,0.3583,0.3641,0.377,0.3825,0.3854,0.3915,0.3981,0.4039,0.4093,0.4108,0.4154,0.4157,0.4237,0.4192,0.43,0.425,0.4285,0.4305,0.4309,0.4316,0.4265,0.4342,0.4485,0.4499,0.4323,0.4321,0.4319,0,0.3666,0.3778,0.3868,0.3897,0.3965,0.4007,0.4038,0.4089,0.413,0.4188,0.4214,0.4281,0.4317,0.4368,0.4388,0.4355,0.4493,0.4452,0.4505,0.4505,0.4534,0.4531,0.4681,0.4561,0.4561,0.4561,0.456,0,0.3794,0.3873,0.3905,0.3961,0.4047,0.4064,0.4149,0.4177,0.4222,0.4281,0.4282,0.4338,0.4362,0.4422,0.4438,0.4522,0.454,0.4552,0.4555,0.455,0.4548,0.4572,0.4564,0.4565,0.4564,0.4563,0.4562,0,0.3902,0.3927,0.4024,0.4079,0.4095,0.4155,0.4202,0.4254,0.4278,0.4353,0.4371,0.4408,0.4477,0.4502,0.4588,0.4598,0.4695,0.4694,0.4676,0.4676,0.4726,0.472,0.4894,0.4916,0.4785,0.4786,0.4787,0,0.3981,0.404,0.41,0.4139,0.417,0.4234,0.4274,0.4293,0.4336,0.4399,0.4443,0.4512,0.4567,0.4678,0.4711,0.4775,0.4773,0.483,0.4783,0.4775,0.477,0.4765,0.4769,0.4838,0.484,0.4841,0.4842,0,0.4117,0.4125,0.4184,0.4246,0.4294,0.4345,0.4394,0.4426,0.4451,0.4499,0.4568,0.4611,0.4695,0.4762,0.4827,0.4857,0.4853,0.4856,0.4871,0.4866,0.4851,0.4856,0.4696,0.4852,0.4851,0.485,0.4849,0.4849,0.421,0.426,0.4309,0.4373,0.4411,0.4456,0.4506,0.4534,0.4592,0.4661,0.4669,0.4743,0.4791,0.4877,0.491,0.4967,0.4952,0.4975,0.498,0.4985,0.4986,0.4844,0.498,0.498,0.4979,0.4979,0.4979,0,0.4343,0.4373,0.4431,0.4498,0.4547,0.4538,0.459,0.4632,0.4697,0.4743,0.4796,0.4873,0.4937,0.4974,0.5038,0.5076,0.5075,0.5092,0.5088,0.5094,0.4999,0.4977,0.5091,0.5091,0.5091,0.5091,0.5091,0.5091,0.4417,0.45,0.4514,0.4615,0.4645,0.4716,0.4746,0.4786,0.4821,0.4908,0.496,0.4983,0.5025,0.509,0.5147,0.5156,0.5178,0.5196,0.5203,0.5113,0.5101,0.509,0.507,0.5201,0.5201,0.5293,0.5294,0.5294]}]]